When you browse on this site, cookies collect data to enhance your experience and personalize the content and advertising you see.
Visit our Privacy Policy to learn more. By continuing to use the site, you agree to this use of cookies and data.
  • în România
  • Lista ţărilor
  • Pe 7 zile
  • Temperatura apei
  • Meteo pe hartă
  • Widget-uri
  • user-avatar
    Intrare

    Meteo pe oră la Ischgl

    Astăzi, 15 Octombrie, Marţi

    Timp Temperatura Precipitaţii Vânt Presiune Umiditate
    00:00 +2°C° 0 mm 3 m/s 574 mmHg 90%
    01:00 0°C° 0 mm 4 m/s 573 mmHg 90%
    02:00 0°C° 0 mm 4 m/s 573 mmHg 89%
    03:00 0°C° 0 mm 4 m/s 572 mmHg 89%
    04:00 0°C° 0 mm 4 m/s 572 mmHg 89%
    05:00 0°C° 0 mm 4 m/s 572 mmHg 88%
    06:00 0°C° 0 mm 4 m/s 571 mmHg 88%
    07:00 0°C° 0 mm 4 m/s 571 mmHg 88%
    08:00 +1°C° 0 mm 4 m/s 572 mmHg 83%
    09:00 +4°C° 0 mm 4 m/s 572 mmHg 79%
    10:00 +5°C° 0 mm 4 m/s 572 mmHg 74%
    11:00 +6°C° 0 mm 4 m/s 572 mmHg 71%
    12:00 +7°C° 0 mm 4 m/s 573 mmHg 67%
    13:00 +8°C° 0 mm 4 m/s 573 mmHg 63%
    14:00 +8°C° 0.2 mm 3 m/s 572 mmHg 68%
    15:00 +7°C° 0.2 mm 3 m/s 572 mmHg 74%
    16:00 +7°C° 0.2 mm 2 m/s 571 mmHg 79%
    17:00 +5°C° 1.6 mm 2 m/s 571 mmHg 85%
    18:00 +4°C° 1.6 mm 2 m/s 571 mmHg 90%
    19:00 +3°C° 1.6 mm 2 m/s 571 mmHg 96%
    20:00 +2°C° 3.2 mm 2 m/s 571 mmHg 97%
    21:00 +1°C° 3.2 mm 2 m/s 571 mmHg 98%
    22:00 -1°C° 3.2 mm 2 m/s 571 mmHg 98%
    23:00 -2°C° 2.3 mm 2 m/s 571 mmHg 98%

    Mâine, 16 Octombrie, Miercuri

    Timp Temperatura Precipitaţii Vânt Presiune Umiditate
    00:00 0°C° 2.3 mm 1 m/s 571 mmHg 98%
    01:00 -1°C° 2.3 mm 1 m/s 571 mmHg 98%
    02:00 -1°C° 0.2 mm 1 m/s 571 mmHg 97%
    03:00 -2°C° 0.2 mm 1 m/s 570 mmHg 96%
    04:00 -2°C° 0.2 mm 1 m/s 570 mmHg 95%
    05:00 -3°C° 0 mm 1 m/s 570 mmHg 93%
    06:00 -3°C° 0 mm 1 m/s 570 mmHg 92%
    07:00 -3°C° 0 mm 1 m/s 570 mmHg 90%
    08:00 -1°C° 0 mm 1 m/s 571 mmHg 90%
    09:00 +1°C° 0 mm 1 m/s 572 mmHg 89%
    10:00 +2°C° 0 mm 1 m/s 573 mmHg 89%
    11:00 +3°C° 0 mm 1 m/s 573 mmHg 86%
    12:00 +4°C° 0 mm 1 m/s 573 mmHg 83%
    13:00 +5°C° 0 mm 1 m/s 574 mmHg 80%
    14:00 +5°C° 0 mm 1 m/s 573 mmHg 82%
    15:00 +5°C° 0 mm 1 m/s 573 mmHg 84%
    16:00 +4°C° 0 mm 1 m/s 573 mmHg 86%
    17:00 +2°C° 0 mm 2 m/s 573 mmHg 86%
    18:00 +1°C° 0 mm 2 m/s 572 mmHg 86%
    19:00 -1°C° 0 mm 2 m/s 572 mmHg 85%
    20:00 -1°C° 0 mm 2 m/s 572 mmHg 86%
    21:00 -1°C° 0 mm 2 m/s 572 mmHg 87%
    22:00 -1°C° 0 mm 2 m/s 573 mmHg 88%
    23:00 -1°C° 0 mm 2 m/s 573 mmHg 89%

    Poimâine, 17 Octombrie, Joi

    Timp Temperatura Precipitaţii Vânt Presiune Umiditate
    00:00 -1°C° 0 mm 2 m/s 573 mmHg 90%
    01:00 -1°C° 0 mm 2 m/s 573 mmHg 90%
    02:00 -1°C° 0 mm 2 m/s 573 mmHg 90%
    03:00 +1°C° 0 mm 1 m/s 573 mmHg 90%
    04:00 +1°C° 0 mm 1 m/s 573 mmHg 90%
    05:00 +1°C° 0 mm 1 m/s 573 mmHg 89%
    06:00 +1°C° 0 mm 1 m/s 573 mmHg 88%
    07:00 +1°C° 0 mm 1 m/s 573 mmHg 87%
    08:00 +2°C° 0 mm 1 m/s 573 mmHg 85%
    09:00 +3°C° 0 mm 1 m/s 574 mmHg 82%
    10:00 +3°C° 0 mm 0 m/s 575 mmHg 80%
    11:00 +4°C° 0 mm 0 m/s 575 mmHg 76%
    12:00 +5°C° 0 mm 0 m/s 575 mmHg 72%
    13:00 +6°C° 0 mm 0 m/s 576 mmHg 69%
    14:00 +7°C° 0 mm 1 m/s 575 mmHg 73%
    15:00 +6°C° 0 mm 1 m/s 575 mmHg 76%
    16:00 +6°C° 0 mm 1 m/s 575 mmHg 80%
    17:00 +4°C° 0 mm 0 m/s 574 mmHg 84%
    18:00 +2°C° 0 mm 0 m/s 574 mmHg 88%
    19:00 0°C° 0 mm 0 m/s 573 mmHg 92%
    20:00 0°C° 0 mm 0 m/s 573 mmHg 92%
    21:00 0°C° 0 mm 0 m/s 574 mmHg 91%
    22:00 +1°C° 0 mm 1 m/s 574 mmHg 90%
    23:00 +2°C° 0 mm 1 m/s 574 mmHg 90%

    18 Octombrie, Vineri

    Timp Temperatura Precipitaţii Vânt Presiune Umiditate
    00:00 +2°C° 0 mm 1 m/s 574 mmHg 90%
    01:00 +2°C° 0 mm 1 m/s 574 mmHg 90%
    02:00 +2°C° 0 mm 1 m/s 573 mmHg 91%
    03:00 +1°C° 0 mm 1 m/s 573 mmHg 91%
    04:00 +1°C° 0 mm 1 m/s 573 mmHg 91%
    05:00 +1°C° 0 mm 1 m/s 573 mmHg 91%
    06:00 +1°C° 0 mm 1 m/s 573 mmHg 92%
    07:00 +1°C° 0 mm 1 m/s 573 mmHg 92%
    08:00 +2°C° 0 mm 1 m/s 574 mmHg 87%
    09:00 +4°C° 0 mm 1 m/s 574 mmHg 82%
    10:00 +5°C° 0 mm 1 m/s 575 mmHg 77%
    11:00 +6°C° 0 mm 1 m/s 576 mmHg 75%
    12:00 +7°C° 0 mm 1 m/s 576 mmHg 73%
    13:00 +7°C° 0 mm 1 m/s 576 mmHg 71%
    14:00 +7°C° 0.1 mm 1 m/s 575 mmHg 76%
    15:00 +6°C° 0.1 mm 1 m/s 575 mmHg 81%
    16:00 +5°C° 0.1 mm 1 m/s 575 mmHg 86%
    17:00 +5°C° 0.3 mm 1 m/s 574 mmHg 89%
    18:00 +3°C° 0.3 mm 0 m/s 574 mmHg 92%
    19:00 +2°C° 0.3 mm 0 m/s 574 mmHg 94%
    20:00 +2°C° 0.4 mm 0 m/s 574 mmHg 95%
    21:00 +3°C° 0.4 mm 1 m/s 574 mmHg 95%
    22:00 +3°C° 0.4 mm 1 m/s 574 mmHg 96%
    23:00 +2°C° 0.3 mm 1 m/s 573 mmHg 96%

    19 Octombrie, Sâmbătă

    Timp Temperatura Precipitaţii Vânt Presiune Umiditate
    00:00 +2°C° 0.3 mm 1 m/s 573 mmHg 96%
    01:00 +2°C° 0.3 mm 1 m/s 573 mmHg 96%
    02:00 +2°C° 0.1 mm 1 m/s 573 mmHg 96%
    03:00 +2°C° 0.1 mm 1 m/s 572 mmHg 95%
    04:00 +2°C° 0.1 mm 1 m/s 572 mmHg 95%
    05:00 +1°C° 0 mm 1 m/s 572 mmHg 95%
    06:00 +1°C° 0 mm 1 m/s 572 mmHg 94%
    07:00 0°C° 0 mm 1 m/s 572 mmHg 94%
    08:00 +1°C° 0 mm 2 m/s 572 mmHg 90%
    09:00 +2°C° 0 mm 2 m/s 573 mmHg 86%
    10:00 +4°C° 0 mm 2 m/s 573 mmHg 83%
    11:00 +4°C° 0 mm 2 m/s 573 mmHg 80%
    12:00 +5°C° 0 mm 2 m/s 573 mmHg 77%
    13:00 +4°C° 0 mm 3 m/s 573 mmHg 74%
    14:00 +4°C° 0.1 mm 3 m/s 573 mmHg 75%
    15:00 +4°C° 0.1 mm 3 m/s 572 mmHg 76%
    16:00 +4°C° 0.1 mm 3 m/s 572 mmHg 77%
    17:00 +2°C° 0.1 mm 3 m/s 571 mmHg 82%
    18:00 +1°C° 0.1 mm 3 m/s 571 mmHg 87%
    19:00 0°C° 0.1 mm 3 m/s 570 mmHg 92%
    20:00 0°C° 0 mm 3 m/s 570 mmHg 92%
    21:00 -1°C° 0 mm 4 m/s 570 mmHg 93%
    22:00 -1°C° 0 mm 4 m/s 570 mmHg 93%
    23:00 -1°C° 0 mm 4 m/s 569 mmHg 93%

    20 Octombrie, Duminică

    Timp Temperatura Precipitaţii Vânt Presiune Umiditate
    00:00 -1°C° 0 mm 4 m/s 569 mmHg 93%
    01:00 -1°C° 0 mm 4 m/s 569 mmHg 93%
    02:00 -1°C° 0.2 mm 4 m/s 569 mmHg 94%
    03:00 -1°C° 0.2 mm 3 m/s 569 mmHg 94%
    04:00 -1°C° 0.2 mm 3 m/s 568 mmHg 95%
    05:00 -1°C° 0.6 mm 3 m/s 569 mmHg 96%
    06:00 -1°C° 0.6 mm 2 m/s 569 mmHg 96%
    07:00 +1°C° 0.6 mm 2 m/s 569 mmHg 97%
    08:00 -1°C° 2 mm 2 m/s 569 mmHg 97%
    09:00 -1°C° 2 mm 2 m/s 569 mmHg 98%
    10:00 -1°C° 2 mm 2 m/s 569 mmHg 98%
    11:00 -1°C° 2.1 mm 2 m/s 569 mmHg 98%
    12:00 0°C° 2.1 mm 1 m/s 569 mmHg 99%
    13:00 0°C° 2.1 mm 1 m/s 569 mmHg 99%
    14:00 0°C° 1.3 mm 1 m/s 569 mmHg 99%
    15:00 0°C° 1.3 mm 1 m/s 569 mmHg 99%
    16:00 0°C° 1.3 mm 1 m/s 569 mmHg 99%
    17:00 0°C° 0.8 mm 1 m/s 570 mmHg 99%
    18:00 0°C° 0.8 mm 1 m/s 570 mmHg 99%
    19:00 0°C° 0.8 mm 1 m/s 570 mmHg 99%
    20:00 0°C° 0.4 mm 1 m/s 570 mmHg 98%
    21:00 -1°C° 0.4 mm 1 m/s 570 mmHg 98%
    22:00 -1°C° 0.4 mm 1 m/s 570 mmHg 98%
    23:00 -1°C° 0.1 mm 1 m/s 570 mmHg 97%
    Arată mai mult